This is the latest recevied weather packets stored in our database for station/object KK7ISX. If no packets are shown the sender has not sent any weather packets the latest 10 day(s).
| Time | Temp. | Humidity | Pressure | Rain* | Wind** | Luminosity | Snow |
|---|---|---|---|---|---|---|---|
| 1778073129 | 8.89° C | 50% | 1019.4 hPa | 0 mm | - | 32 W/m² | - |
| 1778072826 | 8.89° C | 50% | 1019 hPa | 0 mm | - | 27 W/m² | - |
| 1778072523 | 8.89° C | 50% | 1019.2 hPa | 0 mm | - | 23 W/m² | - |
| 1778071919 | 8.33° C | 51% | 1019.2 hPa | 0 mm | - | 15 W/m² | - |
| 1778071012 | 8.33° C | 51% | 1018.8 hPa | 0 mm | - | 5 W/m² | - |
| 1778069497 | 8.33° C | 52% | 1018.9 hPa | 0 mm | - | 0 W/m² | - |
| 1778069196 | 8.89° C | 51% | 1018.9 hPa | 0 mm | - | 0 W/m² | - |
| 1778067986 | 9.44° C | 50% | 1018.6 hPa | 0 mm | - | 0 W/m² | - |
| 1778064959 | 10° C | 48% | 1018.3 hPa | 0 mm | - | 0 W/m² | - |
| 1778063748 | 10° C | 49% | 1017.9 hPa | 0 mm | - | 0 W/m² | - |
| 1778063445 | 9.44° C | 48% | 1017.8 hPa | 0 mm | - | 0 W/m² | - |
| 1778062537 | 10° C | 49% | 1017.5 hPa | 0 mm | - | 0 W/m² | - |
| 1778061932 | 10° C | 48% | 1017.4 hPa | 0 mm | - | 0 W/m² | - |
| 1778061630 | 10.56° C | 47% | 1017.3 hPa | 0 mm | - | 0 W/m² | - |
| 1778061329 | 10.56° C | 47% | 1017.4 hPa | 0 mm | - | 0 W/m² | - |
| 1778060420 | 10.56° C | 47% | 1017 hPa | 0 mm | - | 0 W/m² | - |
| 1778059513 | 11.11° C | 46% | 1017 hPa | 0 mm | - | 0 W/m² | - |
| 1778057998 | 12.22° C | 44% | 1016.4 hPa | 0 mm | - | 0 W/m² | - |
| 1778057696 | 12.22° C | 44% | 1016.2 hPa | 0 mm | - | 0 W/m² | - |
| 1778056785 | 12.78° C | 43% | 1015.8 hPa | 0 mm | - | 0 W/m² | - |
| 1778056483 | 12.78° C | 54% | 1015.8 hPa | 0 mm | - | 0 W/m² | - |
| 1778056180 | 12.78° C | 58% | 1015.1 hPa | 0 mm | - | 0 W/m² | - |
| 1778055877 | 12.78° C | 56% | 1014.7 hPa | 0 mm | - | 0 W/m² | - |
| 1778055572 | 12.78° C | 56% | 1014.7 hPa | 0 mm | - | 0 W/m² | - |
| 1778055271 | 13.33° C | 55% | 1014.6 hPa | 0 mm | - | 0 W/m² | - |
* Rain latest hour (hover to see other rain measurements)
** Current wind speed in m/s (hover to see current wind gust speed)